User: anonymous   Login
Location: Caltech
(34.1382°N, 118.1253°W)
Time: 20:13:08
(UTC-08:00)
Language:

KITSAT 1 - Orbit

View from above orbital plane
View from above orbital plane
View from above satellite
View from above satellite

Ground track
Ground track

The orbit data is extracted from the following two-line orbital elements,

1 22077U 92052B   15026.54129728 -.00000057  00000-0  18713-4 0  7870
2 22077 066.0872 354.4282 0004201 349.7601 106.5666 12.86500769 55132
Epoch (UTC): 26 January 2015 12:59:28
Eccentricity: 0.0004201
inclination: 66.0872°
perigee height: 1312 km
apogee height: 1318 km
right ascension of ascending node: 354.4282°
argument of perigee: 349.7601°
revolutions per day: 12.86500769
mean anomaly at epoch: 106.5666°
orbit number at epoch: 5513

The dashed part of the orbit path shows where the satellite is in the earth's shadow,  

DLR